NIMIQ 4

Last updated on Sun Jun 21 2026 00:03:04 GMT+0000 (Coordinated Universal Time)

1 33373U 08044A 26171.37577706 .00000000 00000+0 00000+0 0 9992 2 33373 0.0407 55.0646 0002058 36.3314 230.5036 1.00266901 65019
UTC large
Height (km)
Speed (km/s)
/
Latitude / Longitude
Inclination (degrees)
Orbital Period (minutes)
Azimuth
Elevation
Range (km)
Doppler Factor

Next 0 passes for location: London (51.5072 / 0.1276)

No passes found over London.
NIMIQ 4